Tracking 18840 objects as of 19-November-2017
HD Live streaming from Space Station
objects crossing your sky now

FENGYUN 1C DEB

Track FENGYUN 1C DEB now!
10-day predictions


NORAD ID: 35155
Int'l Code: 1999-025DMK
Perigee: 835.0 km
Apogee: 873.2 km
Inclination: 98.8 °
Period: 101.9 minutes
Semi major axis: 7225 km
RCS: 0.0117 m2 (small)
Launch date: May 10, 1999
Source: People's Republic of China (PRC)
Launch site: Taiyaun Space Center, China (TSC)

Note: This is SATELLITE DEBRIS
aabbcc
Your satellite tracking list
Your tracking list is empty




NASA's NSSDC Master Catalog

Two Line Element Set (TLE):
1 35155U 99025DMK 17322.39841145  .00000414  00000-0  24195-3 0  9997
2 35155  98.8169  22.7632 0026477 231.3115 128.5689 14.13637711514481
Source of the keplerian elements: AFSPC